Goodland, KS

6:13 AM MDT on June 28, 2017 (GMT -0600)
Renner-Goodland Municipal

Weather History for KGLD - April, 2014

Change the Weather History Date:

Wednesday, April 2, 2014

  Actual Average Record
Temperature  
Mean Temperature 43 °F 45 °F  
Max Temperature 57 °F 60 °F 86 °F (1996)
Min Temperature 29 °F 31 °F 0 °F (1936)
Degree Days  
Heating Degree Days 22 20  
Month to date heating degree days 48 40  
Since 1 July heating degree days 5360 5215  
Cooling Degree Days 0 0  
Month to date cooling degree days 0 0  
Year to date cooling degree days 0 0  
Moisture  
Dew Point 28 °F    
Average Humidity 65    
Maximum Humidity 89    
Minimum Humidity 41    
Precipitation  
Precipitation 0.00 in 0.04 in 0.75 in (1957)
Month to date precipitation 0.00 0.08  
Year to date precipitation 1.36 2.02  
Snow  
Snow 0.00 in 0.30 in - ()
Month to date snowfall 0.0 0.5  
Since 1 July snowfall 28.7 31.3  
Snow Depth 0.00 in    
Sea Level Pressure  
Sea Level Pressure 29.77 in    
Wind  
Wind Speed 13 mph (East)    
Max Wind Speed 23 mph    
Max Gust Speed 27 mph    
Visibility 10 miles    
Events      
T = Trace of Precipitation, MM = Missing Value Source: NWS Daily Summary

Daily Weather History Graph

Daily Weather History Graph

Search for Another Location

Airport or City:

Trip Planner

Search our weather history database for the weather conditions in past years. The results will help you decide how hot, cold, wet, or windy it might be!

Date:

Astronomy

Apr. 02, 2014 Rise Set
Actual Time 6:29 AM MDT 7:11 PM MDT
Civil Twilight 6:02 AM MDT 7:38 PM MDT
Nautical Twilight 5:30 AM MDT 8:10 PM MDT
Astronomical Twilight 4:57 AM MDT 8:44 PM MDT
Moon 8:16 AM MDT (4/2) 10:35 PM MDT (4/2)
Length of Visible Light 13h 36m
Length of Day
12h 42m
Waxing Crescent, 10% of the Moon is Illuminated
Apr 2
Waxing Crescent
Apr 7
First Quarter
Apr 15
Full
Apr 22
Last Quarter
Apr 29
New

Hourly Weather History & Observations

Time (MDT) Temp. Windchill Dew Point Humidity Pressure Visibility Wind Dir Wind Speed Gust Speed Precip Events Conditions
12:53 AM 33.1 °F 22.2 °F 24.1 °F 70% 29.82 in 10.0 mi ESE 17.3 mph - N/A   Clear
1:53 AM 30.9 °F 21.7 °F 23.0 °F 72% 29.82 in 10.0 mi ESE 11.5 mph - N/A   Clear
2:53 AM 30.9 °F 22.2 °F 23.0 °F 72% 29.81 in 10.0 mi East 10.4 mph - N/A   Mostly Cloudy
3:53 AM 32.0 °F 22.5 °F 23.0 °F 69% 29.81 in 10.0 mi East 12.7 mph - N/A   Overcast
4:53 AM 33.1 °F 23.0 °F 23.0 °F 66% 29.80 in 10.0 mi East 15.0 mph - N/A   Overcast
6:53 AM 33.1 °F 25.5 °F 23.0 °F 66% 29.81 in 10.0 mi East 9.2 mph - N/A   Overcast
7:53 AM 34.0 °F 25.5 °F 24.1 °F 67% 29.81 in 10.0 mi East 11.5 mph - N/A   Overcast
8:41 AM 35.1 °F 26.4 °F 24.1 °F 64% 29.80 in 10.0 mi ESE 12.7 mph - N/A   Overcast
8:53 AM 35.1 °F 26.4 °F 25.0 °F 67% 29.81 in 10.0 mi ESE 12.7 mph - N/A   Overcast
9:12 AM 36.0 °F 28.0 °F 25.0 °F 64% 29.79 in 10.0 mi ESE 11.5 mph - N/A   Overcast
9:30 AM 36.0 °F 29.0 °F 25.0 °F 64% 29.79 in 10.0 mi ESE 9.2 mph - N/A   Overcast
9:48 AM 37.4 °F 29.8 °F 26.6 °F 65% 29.80 in 10.0 mi ESE 11.5 mph - N/A   Overcast
9:53 AM 37.0 °F 29.3 °F 26.1 °F 65% 29.82 in 10.0 mi SE 11.5 mph - N/A   Overcast
10:53 AM 41.0 °F 35.8 °F 27.0 °F 57% 29.81 in 10.0 mi ESE 8.1 mph - N/A   Overcast
11:53 AM 46.0 °F 40.2 °F 30.0 °F 54% 29.77 in 10.0 mi SE 12.7 mph - N/A   Mostly Cloudy
12:04 PM 46.0 °F 41.9 °F 30.0 °F 54% 29.76 in 10.0 mi SE 8.1 mph 19.6 mph N/A   Scattered Clouds
12:53 PM 48.0 °F - 30.9 °F 52% 29.75 in 10.0 mi East 9.2 mph - N/A   Clear
1:53 PM 52.0 °F - 32.0 °F 47% 29.74 in 10.0 mi SE 6.9 mph - N/A   Clear
2:53 PM 54.0 °F - 32.0 °F 43% 29.70 in 10.0 mi East 8.1 mph 18.4 mph N/A   Clear
3:53 PM 55.4 °F - 32.0 °F 41% 29.69 in 10.0 mi East 11.5 mph 23.0 mph N/A   Clear
4:53 PM 55.9 °F - 33.1 °F 42% 29.67 in 10.0 mi East 16.1 mph - N/A   Clear
5:53 PM 51.1 °F - 33.1 °F 50% 29.68 in 10.0 mi East 20.7 mph - N/A   Clear
6:53 PM 46.0 °F 39.0 °F 32.0 °F 58% 29.69 in 10.0 mi ENE 17.3 mph - N/A   Clear
7:53 PM 41.0 °F 33.5 °F 30.0 °F 65% 29.73 in 10.0 mi ENE 13.8 mph - N/A   Clear
8:53 PM 37.0 °F 28.1 °F 28.9 °F 73% 29.76 in 10.0 mi NE 15.0 mph - N/A   Clear
9:53 PM 36.0 °F 27.5 °F 28.9 °F 76% 29.78 in 10.0 mi NE 12.7 mph - N/A   Clear
10:46 PM 34.0 °F 24.2 °F 28.9 °F 82% 29.76 in 8.0 mi NNE 15.0 mph - N/A   Mostly Cloudy
10:53 PM 34.0 °F 23.4 °F 28.9 °F 82% 29.78 in 8.0 mi NNE 17.3 mph - N/A   Mostly Cloudy
11:06 PM 33.1 °F 22.2 °F 30.0 °F 89% 29.75 in 8.0 mi NNE 17.3 mph - N/A   Scattered Clouds
11:47 PM 33.8 °F 23.9 °F 30.2 °F 87% 29.75 in 7.0 mi NNE 15.0 mph - N/A   Mostly Cloudy
11:53 PM 34.0 °F 25.0 °F 30.0 °F 85% 29.77 in 7.0 mi NNE 12.7 mph - N/A   Mostly Cloudy